Time,TemperatureF,DewpointF,PressureIn,WindDirection,WindDirectionDegrees,WindSpeedMPH,WindSpeedGustMPH,Humidity,HourlyPrecipIn,Conditions,Clouds,dailyrainin,SolarRadiationWatts/m^2,SoftwareType,DateUTC
2013-09-12 00:05:00,68.0,68.0,-100.00,North,352,0.0,0.0,100,0.00,,,0.00,0.000000,,2013-09-12 04:05:00,
2013-09-12 00:14:00,68.0,68.0,-100.00,North,352,0.0,0.0,100,0.00,,,0.00,0.000000,,2013-09-12 04:14:00,
2013-09-12 00:44:00,67.0,67.0,-100.00,NW,311,0.0,0.0,100,0.00,,,0.00,0.000000,,2013-09-12 04:44:00,
2013-09-12 00:54:00,67.0,67.0,-100.00,NW,311,0.0,0.0,100,0.00,,,0.00,0.000000,,2013-09-12 04:54:00,
2013-09-12 01:03:00,67.0,67.0,-100.00,NW,311,0.0,0.0,100,0.00,,,0.00,0.000000,,2013-09-12 05:03:00,
2013-09-12 01:13:00,67.0,67.0,-100.00,NW,311,0.0,0.0,100,0.00,,,0.00,0.000000,,2013-09-12 05:13:00,
2013-09-12 01:43:00,67.0,67.0,-100.00,NW,325,0.0,0.0,100,0.00,,,0.00,0.000000,,2013-09-12 05:43:00,
2013-09-12 01:53:00,67.0,67.0,-100.00,NW,325,0.0,0.0,100,0.00,,,0.00,0.000000,,2013-09-12 05:53:00,
2013-09-12 02:02:00,67.0,67.0,-100.00,NW,325,0.0,0.0,100,0.00,,,0.00,0.000000,,2013-09-12 06:02:00,
2013-09-12 02:12:00,67.0,67.0,-100.00,NW,325,0.0,0.0,100,0.00,,,0.00,0.000000,,2013-09-12 06:12:00,
2013-09-12 02:42:00,67.0,67.0,-100.00,SSW,199,0.0,0.0,100,0.00,,,0.00,0.000000,,2013-09-12 06:42:00,
2013-09-12 02:52:00,67.0,67.0,-100.00,SSW,199,0.0,0.0,100,0.00,,,0.00,0.000000,,2013-09-12 06:52:00,
2013-09-12 03:02:00,67.0,67.0,-100.00,SSW,199,0.0,0.0,100,0.00,,,0.00,0.000000,,2013-09-12 07:02:00,
2013-09-12 03:12:00,67.0,67.0,-100.00,SSW,199,0.0,0.0,100,0.00,,,0.00,0.000000,,2013-09-12 07:12:00,
2013-09-12 03:44:00,66.0,66.0,-100.00,NW,321,0.0,0.0,100,0.00,,,0.00,0.000000,,2013-09-12 07:44:00,
2013-09-12 03:53:00,66.0,66.0,-100.00,NW,321,0.0,0.0,100,0.00,,,0.00,0.000000,,2013-09-12 07:53:00,
2013-09-12 04:02:00,66.0,66.0,-100.00,NW,321,0.0,0.0,100,0.00,,,0.00,0.000000,,2013-09-12 08:02:00,
2013-09-12 04:11:00,66.0,66.0,-100.00,NW,321,0.0,0.0,100,0.00,,,0.00,0.000000,,2013-09-12 08:11:00,
2013-09-12 04:42:00,65.0,65.0,-100.00,NW,326,0.0,0.0,100,0.00,,,0.00,0.000000,,2013-09-12 08:42:00,
2013-09-12 04:52:00,65.0,65.0,-100.00,NW,326,0.0,0.0,100,0.00,,,0.00,0.000000,,2013-09-12 08:52:00,
2013-09-12 05:02:00,65.0,65.0,-100.00,NW,326,0.0,0.0,100,0.00,,,0.00,0.000000,,2013-09-12 09:02:00,
2013-09-12 05:12:00,65.0,65.0,-100.00,NW,326,0.0,0.0,100,0.00,,,0.00,0.000000,,2013-09-12 09:12:00,
2013-09-12 05:43:00,66.0,66.0,-100.00,NNW,330,0.0,0.0,100,0.00,,,0.00,0.000000,,2013-09-12 09:43:00,
2013-09-12 05:53:00,66.0,66.0,-100.00,NNW,330,0.0,0.0,100,0.00,,,0.00,0.000000,,2013-09-12 09:53:00,
2013-09-12 06:03:00,66.0,66.0,-100.00,NNW,330,0.0,0.0,100,0.00,,,0.00,0.000000,,2013-09-12 10:03:00,
2013-09-12 06:12:00,66.0,66.0,-100.00,NNW,330,0.0,0.0,100,0.00,,,0.00,0.000000,,2013-09-12 10:12:00,
2013-09-12 06:43:00,65.0,65.0,-100.00,NW,310,0.0,0.0,100,0.00,,,0.00,0.000000,,2013-09-12 10:43:00,
2013-09-12 06:53:00,65.0,65.0,-100.00,NW,310,0.0,0.0,100,0.00,,,0.00,0.000000,,2013-09-12 10:53:00,
2013-09-12 07:03:00,65.0,65.0,-100.00,NW,310,0.0,0.0,100,0.00,,,0.00,0.000000,,2013-09-12 11:03:00,
2013-09-12 07:11:00,65.0,65.0,-100.00,NW,310,0.0,0.0,100,0.00,,,0.00,0.000000,,2013-09-12 11:11:00,
2013-09-12 07:42:00,64.0,64.0,-100.00,NNW,334,0.0,0.0,100,0.00,,,0.00,4.000000,,2013-09-12 11:42:00,
2013-09-12 07:52:00,64.0,64.0,-100.00,NNW,334,0.0,0.0,100,0.00,,,0.00,4.000000,,2013-09-12 11:52:00,
2013-09-12 08:01:00,64.0,64.0,-100.00,NNW,334,0.0,0.0,100,0.00,,,0.00,4.000000,,2013-09-12 12:01:00,
2013-09-12 08:12:00,64.0,64.0,-100.00,NNW,334,0.0,0.0,100,0.00,,,0.00,4.000000,,2013-09-12 12:12:00,
2013-09-12 08:42:00,69.0,69.0,-100.00,WNW,303,0.0,0.0,100,0.00,,,0.00,62.000000,,2013-09-12 12:42:00,
2013-09-12 08:52:00,69.0,69.0,-100.00,WNW,303,0.0,0.0,100,0.00,,,0.00,62.000000,,2013-09-12 12:52:00,
2013-09-12 09:02:00,69.0,69.0,-100.00,WNW,303,0.0,0.0,100,0.00,,,0.00,62.000000,,2013-09-12 13:02:00,
2013-09-12 09:11:00,69.0,69.0,-100.00,WNW,303,0.0,0.0,100,0.00,,,0.00,62.000000,,2013-09-12 13:11:00,
2013-09-12 09:42:00,78.0,78.0,-100.00,SW,216,1.0,3.0,100,0.00,,,0.00,245.000000,,2013-09-12 13:42:00,
2013-09-12 09:52:00,78.0,78.0,-100.00,SW,216,1.0,3.0,100,0.00,,,0.00,245.000000,,2013-09-12 13:52:00,
2013-09-12 10:02:00,78.0,78.0,-100.00,SW,216,1.0,3.0,100,0.00,,,0.00,245.000000,,2013-09-12 14:02:00,
2013-09-12 10:11:00,78.0,78.0,-100.00,SW,216,1.0,3.0,100,0.00,,,0.00,245.000000,,2013-09-12 14:11:00,
2013-09-12 11:44:00,84.0,74.0,-100.00,WSW,247,3.0,8.0,73,0.00,,,0.00,610.000000,,2013-09-12 15:44:00,
2013-09-12 11:54:00,84.0,74.0,-100.00,WSW,247,3.0,8.0,73,0.00,,,0.00,610.000000,,2013-09-12 15:54:00,
2013-09-12 12:03:00,84.0,74.0,-100.00,WSW,247,3.0,8.0,73,0.00,,,0.00,610.000000,,2013-09-12 16:03:00,
2013-09-12 12:13:00,84.0,74.0,-100.00,WSW,247,3.0,8.0,73,0.00,,,0.00,610.000000,,2013-09-12 16:13:00,
2013-09-12 12:43:00,87.0,75.0,-100.00,SSW,206,3.0,9.0,68,0.00,,,0.00,768.000000,,2013-09-12 16:43:00,
2013-09-12 12:53:00,87.0,75.0,-100.00,SSW,206,3.0,9.0,68,0.00,,,0.00,768.000000,,2013-09-12 16:53:00,
2013-09-12 13:03:00,87.0,75.0,-100.00,SSW,206,3.0,9.0,68,0.00,,,0.00,768.000000,,2013-09-12 17:03:00,
2013-09-12 13:12:00,87.0,75.0,-100.00,SSW,206,3.0,9.0,68,0.00,,,0.00,768.000000,,2013-09-12 17:12:00,
2013-09-12 13:43:00,87.0,69.0,-100.00,SW,235,3.0,7.0,56,0.00,,,0.00,771.000000,,2013-09-12 17:43:00,
2013-09-12 13:54:00,87.0,69.0,-100.00,SW,235,3.0,7.0,56,0.00,,,0.00,771.000000,,2013-09-12 17:54:00,
2013-09-12 14:02:00,87.0,69.0,-100.00,SW,235,3.0,7.0,56,0.00,,,0.00,771.000000,,2013-09-12 18:02:00,
2013-09-12 14:12:00,87.0,69.0,-100.00,SW,235,3.0,7.0,56,0.00,,,0.00,771.000000,,2013-09-12 18:12:00,
2013-09-12 14:42:00,89.0,70.0,-100.00,SSW,195,5.0,11.0,53,0.00,,,0.00,904.000000,,2013-09-12 18:42:00,
2013-09-12 14:52:00,89.0,70.0,-100.00,SSW,195,5.0,11.0,53,0.00,,,0.00,904.000000,,2013-09-12 18:52:00,
2013-09-12 15:02:00,89.0,70.0,-100.00,SSW,195,5.0,11.0,53,0.00,,,0.00,904.000000,,2013-09-12 19:02:00,
2013-09-12 15:12:00,89.0,70.0,-100.00,SSW,195,5.0,11.0,53,0.00,,,0.00,904.000000,,2013-09-12 19:12:00,
2013-09-12 15:52:00,87.0,65.0,-100.00,SSE,161,5.0,11.0,48,0.00,,,0.00,752.000000,,2013-09-12 19:52:00,
2013-09-12 16:02:00,87.0,65.0,-100.00,SSE,161,5.0,11.0,48,0.00,,,0.00,752.000000,,2013-09-12 20:02:00,
2013-09-12 16:12:00,87.0,65.0,-100.00,SSE,161,5.0,11.0,48,0.00,,,0.00,752.000000,,2013-09-12 20:12:00,
2013-09-12 16:42:00,85.0,73.0,-100.00,SSE,162,7.0,13.0,68,0.00,,,0.00,591.000000,,2013-09-12 20:42:00,
2013-09-12 16:52:00,85.0,73.0,-100.00,SSE,162,7.0,13.0,68,0.00,,,0.00,591.000000,,2013-09-12 20:52:00,
2013-09-12 17:02:00,85.0,73.0,-100.00,SSE,162,7.0,13.0,68,0.00,,,0.00,591.000000,,2013-09-12 21:02:00,
2013-09-12 17:11:00,85.0,73.0,-100.00,SSE,162,7.0,13.0,68,0.00,,,0.00,591.000000,,2013-09-12 21:11:00,
2013-09-12 17:43:00,84.0,74.0,-100.00,SSE,164,7.0,15.0,73,0.00,,,0.00,379.000000,,2013-09-12 21:43:00,
2013-09-12 17:54:00,84.0,74.0,-100.00,SSE,164,7.0,15.0,73,0.00,,,0.00,379.000000,,2013-09-12 21:54:00,
2013-09-12 18:04:00,84.0,74.0,-100.00,SSE,164,7.0,15.0,73,0.00,,,0.00,379.000000,,2013-09-12 22:04:00,
2013-09-12 18:13:00,84.0,74.0,-100.00,SSE,164,7.0,15.0,73,0.00,,,0.00,379.000000,,2013-09-12 22:13:00,
2013-09-12 18:43:00,82.0,75.0,-100.00,SE,140,5.0,12.0,80,0.00,,,0.00,193.000000,,2013-09-12 22:43:00,
2013-09-12 18:54:00,82.0,75.0,-100.00,SE,140,5.0,12.0,80,0.00,,,0.00,193.000000,,2013-09-12 22:54:00,
2013-09-12 19:04:00,82.0,75.0,-100.00,SE,140,5.0,12.0,80,0.00,,,0.00,193.000000,,2013-09-12 23:04:00,
2013-09-12 19:12:00,82.0,75.0,-100.00,SE,140,5.0,12.0,80,0.00,,,0.00,193.000000,,2013-09-12 23:12:00,
2013-09-12 19:43:00,79.0,76.0,-100.00,South,176,3.0,11.0,91,0.00,,,0.00,46.000000,,2013-09-12 23:43:00,
2013-09-12 19:53:00,79.0,76.0,-100.00,South,176,3.0,11.0,91,0.00,,,0.00,46.000000,,2013-09-12 23:53:00,
2013-09-12 20:01:00,79.0,76.0,-100.00,South,176,3.0,11.0,91,0.00,,,0.00,46.000000,,2013-09-13 00:01:00,
2013-09-12 20:12:00,79.0,76.0,-100.00,South,176,3.0,11.0,91,0.00,,,0.00,46.000000,,2013-09-13 00:12:00,
2013-09-12 20:42:00,76.0,76.0,-100.00,SSE,160,3.0,7.0,100,0.00,,,0.00,0.000000,,2013-09-13 00:42:00,
2013-09-12 20:52:00,76.0,76.0,-100.00,SSE,160,3.0,7.0,100,0.00,,,0.00,0.000000,,2013-09-13 00:52:00,
2013-09-12 21:02:00,76.0,76.0,-100.00,SSE,160,3.0,7.0,100,0.00,,,0.00,0.000000,,2013-09-13 01:02:00,
2013-09-12 21:11:00,76.0,76.0,-100.00,SSE,160,3.0,7.0,100,0.00,,,0.00,0.000000,,2013-09-13 01:11:00,
2013-09-12 21:53:00,75.0,75.0,-100.00,South,177,2.0,5.0,100,0.00,,,-99.99,0.000000,,2013-09-13 01:53:00,
2013-09-12 22:02:00,75.0,75.0,-100.00,South,177,2.0,5.0,100,0.00,,,-99.99,0.000000,,2013-09-13 02:02:00,
2013-09-12 22:12:00,75.0,75.0,-100.00,South,177,2.0,5.0,100,0.00,,,-99.99,0.000000,,2013-09-13 02:12:00,
2013-09-12 22:43:00,75.0,75.0,-100.00,SSW,196,3.0,6.0,100,0.00,,,0.00,0.000000,,2013-09-13 02:43:00,
2013-09-12 22:53:00,75.0,75.0,-100.00,SSW,196,3.0,6.0,100,0.00,,,0.00,0.000000,,2013-09-13 02:53:00,
2013-09-12 23:02:00,75.0,75.0,-100.00,SSW,196,3.0,6.0,100,0.00,,,0.00,0.000000,,2013-09-13 03:02:00,
2013-09-12 23:12:00,75.0,75.0,-100.00,SSW,196,3.0,6.0,100,0.00,,,0.00,0.000000,,2013-09-13 03:12:00,
2013-09-12 23:45:00,75.0,75.0,-100.00,SSW,196,2.0,6.0,100,0.00,,,0.00,0.000000,,2013-09-13 03:45:00,
2013-09-12 23:55:00,75.0,75.0,-100.00,SSW,196,2.0,6.0,100,0.00,,,0.00,0.000000,,2013-09-13 03:55:00,